Time,TemperatureF,DewpointF,PressureIn,WindDirection,WindDirectionDegrees,WindSpeedMPH,WindSpeedGustMPH,Humidity,HourlyPrecipIn,Conditions,Clouds,dailyrainin,SoftwareType,DateUTC
2013-07-02 00:01:00,87.1,44.8,24.98,West,277,5.8,5.8,23,0.00,,---,0.00,VWS V14.01,2013-07-02 06:01:00,
2013-07-02 00:06:00,87.1,44.8,24.98,West,273,4.0,5.4,23,0.00,,---,0.00,VWS V14.01,2013-07-02 06:06:00,
2013-07-02 00:11:00,87.1,44.8,24.98,SW,230,5.4,5.4,23,0.00,,---,0.00,VWS V14.01,2013-07-02 06:11:00,
2013-07-02 00:16:00,87.1,44.8,24.98,West,279,8.3,8.3,23,0.00,,---,0.00,VWS V14.01,2013-07-02 06:16:00,
2013-07-02 00:21:00,87.1,44.8,24.98,WSW,253,4.9,7.6,23,0.00,,---,0.00,VWS V14.01,2013-07-02 06:21:00,
2013-07-02 00:26:00,87.1,44.8,24.98,WSW,246,5.4,6.3,23,0.00,,---,0.00,VWS V14.01,2013-07-02 06:26:00,
2013-07-02 00:31:00,87.1,44.8,24.98,WSW,256,4.5,6.3,23,0.00,,---,0.00,VWS V14.01,2013-07-02 06:31:00,
2013-07-02 00:36:00,87.1,44.8,24.98,WNW,295,8.1,8.1,23,0.00,,---,0.00,VWS V14.01,2013-07-02 06:36:00,
2013-07-02 00:41:00,87.1,44.8,24.98,West,262,4.5,5.8,23,0.00,,---,0.00,VWS V14.01,2013-07-02 06:41:00,
2013-07-02 00:46:00,87.1,44.8,24.98,WSW,242,6.3,8.1,23,0.00,,---,0.00,VWS V14.01,2013-07-02 06:46:00,
2013-07-02 00:51:00,87.1,44.8,24.98,West,274,6.3,6.3,23,0.00,,---,0.00,VWS V14.01,2013-07-02 06:51:00,
2013-07-02 00:56:00,87.1,44.8,24.98,West,270,8.1,8.1,23,0.00,,---,0.00,VWS V14.01,2013-07-02 06:56:00,
2013-07-02 01:01:00,87.1,44.8,24.98,SW,228,5.4,7.6,23,0.00,,---,0.00,VWS V14.01,2013-07-02 07:01:00,
2013-07-02 01:06:00,87.1,44.8,24.98,WSW,248,5.8,7.6,23,0.00,,---,0.00,VWS V14.01,2013-07-02 07:06:00,
2013-07-02 01:11:00,87.1,44.8,24.98,WSW,251,5.4,8.3,23,0.00,,---,0.00,VWS V14.01,2013-07-02 07:11:00,
2013-07-02 01:16:00,87.1,44.8,24.98,West,278,6.3,8.1,23,0.00,,---,0.00,VWS V14.01,2013-07-02 07:16:00,
2013-07-02 01:21:00,87.1,44.8,24.98,West,260,6.3,7.6,23,0.00,,---,0.00,VWS V14.01,2013-07-02 07:21:00,
2013-07-02 01:26:00,87.1,44.8,24.98,WSW,248,5.8,8.7,23,0.00,,---,0.00,VWS V14.01,2013-07-02 07:26:00,
2013-07-02 01:31:00,87.1,44.8,24.98,West,265,8.1,9.6,23,0.00,,---,0.00,VWS V14.01,2013-07-02 07:31:00,
2013-07-02 01:36:00,87.1,44.8,24.98,WSW,256,5.4,10.1,23,0.00,,---,0.00,VWS V14.01,2013-07-02 07:36:00,
2013-07-02 01:41:00,87.1,44.8,24.98,WSW,257,8.1,8.3,23,0.00,,---,0.00,VWS V14.01,2013-07-02 07:41:00,
2013-07-02 01:46:00,87.1,44.8,24.98,SW,217,6.3,8.7,23,0.00,,---,0.00,VWS V14.01,2013-07-02 07:46:00,
2013-07-02 01:51:00,87.1,44.8,24.98,WSW,247,5.8,6.3,23,0.00,,---,0.00,VWS V14.01,2013-07-02 07:51:00,
2013-07-02 01:56:00,87.1,44.8,24.98,West,262,4.0,4.0,23,0.00,,---,0.00,VWS V14.01,2013-07-02 07:56:00,
2013-07-02 02:01:00,87.1,44.8,24.98,West,263,3.6,4.9,23,0.00,,---,0.00,VWS V14.01,2013-07-02 08:01:00,
2013-07-02 02:06:00,87.1,44.8,24.98,West,268,6.3,6.3,23,0.00,,---,0.00,VWS V14.01,2013-07-02 08:06:00,
2013-07-02 02:11:00,87.1,44.8,24.98,West,278,6.3,6.3,23,0.00,,---,0.00,VWS V14.01,2013-07-02 08:11:00,
2013-07-02 02:16:00,87.1,44.8,24.98,SW,227,7.6,7.6,23,0.00,,---,0.00,VWS V14.01,2013-07-02 08:16:00,
2013-07-02 02:21:00,87.1,44.8,24.98,WSW,240,6.3,7.6,23,0.00,,---,0.00,VWS V14.01,2013-07-02 08:21:00,
2013-07-02 02:26:00,87.1,44.8,24.98,WSW,249,6.3,7.6,23,0.00,,---,0.00,VWS V14.01,2013-07-02 08:26:00,
2013-07-02 02:31:00,87.1,44.8,24.98,WSW,252,8.3,8.3,23,0.00,,---,0.00,VWS V14.01,2013-07-02 08:31:00,
2013-07-02 02:36:00,87.1,44.8,24.98,West,273,7.6,10.1,23,0.00,,---,0.00,VWS V14.01,2013-07-02 08:36:00,
2013-07-02 02:41:00,87.1,44.8,24.98,West,281,8.1,8.1,23,0.00,,---,0.00,VWS V14.01,2013-07-02 08:41:00,
2013-07-02 02:46:00,87.1,44.8,24.98,WSW,250,7.6,8.7,23,0.00,,---,0.00,VWS V14.01,2013-07-02 08:46:00,
2013-07-02 02:51:00,87.1,44.8,24.98,WNW,295,7.6,8.1,23,0.00,,---,0.00,VWS V14.01,2013-07-02 08:51:00,
2013-07-02 02:56:00,87.1,44.8,24.98,WNW,284,5.4,6.3,23,0.00,,---,0.00,VWS V14.01,2013-07-02 08:56:00,
2013-07-02 03:00:00,87.1,44.8,24.98,WSW,258,4.9,6.3,23,0.00,,---,0.00,VWS V14.01,2013-07-02 09:00:00,
2013-07-02 03:05:00,87.1,44.8,24.98,West,277,8.3,8.3,23,0.00,,---,0.00,VWS V14.01,2013-07-02 09:05:00,
2013-07-02 03:10:00,87.1,44.8,24.98,WSW,254,8.1,9.2,23,0.00,,---,0.00,VWS V14.01,2013-07-02 09:10:00,
2013-07-02 03:15:00,87.1,44.8,24.98,West,262,6.3,7.6,23,0.00,,---,0.00,VWS V14.01,2013-07-02 09:15:00,
2013-07-02 03:20:00,87.1,44.8,24.98,West,260,6.3,8.1,23,0.00,,---,0.00,VWS V14.01,2013-07-02 09:20:00,
2013-07-02 03:25:00,87.1,44.8,24.98,West,259,6.3,8.1,23,0.00,,---,0.00,VWS V14.01,2013-07-02 09:25:00,
2013-07-02 03:30:00,62.2,49.9,24.89,SW,234,5.8,6.3,64,0.00,,---,0.00,VWS V14.01,2013-07-02 09:30:00,
2013-07-02 03:35:00,62.2,49.9,24.89,WNW,286,8.1,8.7,64,0.00,,---,0.00,VWS V14.01,2013-07-02 09:35:00,
2013-07-02 03:40:00,62.2,49.9,24.89,WNW,293,5.8,8.1,64,0.00,,---,0.00,VWS V14.01,2013-07-02 09:40:00,
2013-07-02 03:45:00,62.4,49.7,24.89,West,277,5.8,6.3,63,0.00,,---,0.00,VWS V14.01,2013-07-02 09:45:00,
2013-07-02 03:50:00,62.6,49.4,24.89,West,260,6.7,9.2,62,0.00,,---,0.00,VWS V14.01,2013-07-02 09:50:00,
2013-07-02 03:55:00,62.8,49.6,24.89,West,261,5.8,8.3,62,0.00,,---,0.00,VWS V14.01,2013-07-02 09:55:00,
2013-07-02 04:00:00,62.6,49.4,24.89,WSW,241,5.8,8.3,62,0.00,,---,0.00,VWS V14.01,2013-07-02 10:00:00,
2013-07-02 04:05:00,62.2,49.5,24.89,West,273,5.8,7.6,63,0.00,,---,0.00,VWS V14.01,2013-07-02 10:05:00,
2013-07-02 04:10:00,62.1,49.3,24.89,WSW,252,8.3,8.3,63,0.00,,---,0.00,VWS V14.01,2013-07-02 10:10:00,
2013-07-02 04:15:00,61.9,49.6,24.89,West,278,5.8,10.5,64,0.00,,---,0.00,VWS V14.01,2013-07-02 10:15:00,
2013-07-02 04:20:00,61.9,49.6,24.89,West,279,4.0,8.3,64,0.00,,---,0.00,VWS V14.01,2013-07-02 10:20:00,
2013-07-02 04:25:00,62.1,49.8,24.89,WSW,255,5.8,9.2,64,0.00,,---,0.00,VWS V14.01,2013-07-02 10:25:00,
2013-07-02 04:30:00,62.4,49.7,24.89,WSW,241,4.0,5.4,63,0.00,,---,0.00,VWS V14.01,2013-07-02 10:30:00,
2013-07-02 04:35:00,62.2,49.5,24.89,WSW,250,6.3,6.3,63,0.00,,---,0.00,VWS V14.01,2013-07-02 10:35:00,
2013-07-02 04:40:00,62.2,49.5,24.89,West,265,6.3,10.1,63,0.00,,---,0.00,VWS V14.01,2013-07-02 10:40:00,
2013-07-02 04:45:00,62.1,49.3,24.89,West,275,8.7,8.7,63,0.00,,---,0.00,VWS V14.01,2013-07-02 10:45:00,
2013-07-02 04:50:00,62.1,49.8,24.89,West,281,6.3,8.7,64,0.00,,---,0.00,VWS V14.01,2013-07-02 10:50:00,
2013-07-02 04:55:00,61.9,49.6,24.89,SW,229,5.8,5.8,64,0.00,,---,0.00,VWS V14.01,2013-07-02 10:55:00,
2013-07-02 05:00:00,61.9,49.6,24.89,West,268,5.8,6.3,64,0.00,,---,0.00,VWS V14.01,2013-07-02 11:00:00,
2013-07-02 05:05:00,61.9,49.6,24.89,WSW,258,8.1,8.3,64,0.00,,---,0.00,VWS V14.01,2013-07-02 11:05:00,
2013-07-02 05:10:00,62.1,49.3,24.89,SW,230,4.9,6.3,63,0.00,,---,0.00,VWS V14.01,2013-07-02 11:10:00,
2013-07-02 05:15:00,62.2,49.5,24.89,West,267,5.8,5.8,63,0.00,,---,0.00,VWS V14.01,2013-07-02 11:15:00,
2013-07-02 05:20:00,62.2,49.5,24.89,West,274,8.7,8.7,63,0.00,,---,0.00,VWS V14.01,2013-07-02 11:20:00,
2013-07-02 05:25:00,61.7,49.0,24.89,West,267,5.4,8.3,63,0.00,,---,0.00,VWS V14.01,2013-07-02 11:25:00,
2013-07-02 05:30:00,61.2,49.3,24.89,West,259,8.3,8.3,65,0.00,,---,0.00,VWS V14.01,2013-07-02 11:30:00,
2013-07-02 05:35:00,61.0,49.2,24.89,West,273,5.8,6.3,65,0.00,,---,0.00,VWS V14.01,2013-07-02 11:35:00,
2013-07-02 05:40:00,61.0,49.5,24.89,SW,222,9.6,9.6,66,0.00,,---,0.00,VWS V14.01,2013-07-02 11:40:00,
2013-07-02 05:45:00,61.0,49.2,24.89,WSW,257,7.6,8.3,65,0.00,,---,0.00,VWS V14.01,2013-07-02 11:45:00,
2013-07-02 05:50:00,61.0,49.2,24.89,West,266,5.8,6.3,65,0.00,,---,0.00,VWS V14.01,2013-07-02 11:50:00,
2013-07-02 05:55:00,61.2,49.3,24.89,SW,226,3.6,7.6,65,0.00,,---,0.00,VWS V14.01,2013-07-02 11:55:00,
2013-07-02 06:00:00,61.3,49.5,24.89,SW,227,8.1,8.1,65,0.00,,---,0.00,VWS V14.01,2013-07-02 12:00:00,
2013-07-02 06:05:00,61.5,49.2,24.89,West,276,5.8,8.3,64,0.00,,---,0.00,VWS V14.01,2013-07-02 12:05:00,
2013-07-02 06:10:00,61.7,49.4,24.89,West,280,8.3,8.3,64,0.00,,---,0.00,VWS V14.01,2013-07-02 12:10:00,
2013-07-02 06:15:00,61.3,49.1,24.89,WNW,283,6.3,8.3,64,0.00,,---,0.00,VWS V14.01,2013-07-02 12:15:00,
2013-07-02 06:20:00,61.0,49.2,24.89,West,266,5.8,8.3,65,0.00,,---,0.00,VWS V14.01,2013-07-02 12:20:00,
2013-07-02 06:25:00,61.0,49.2,24.89,WSW,240,6.3,6.3,65,0.00,,---,0.00,VWS V14.01,2013-07-02 12:25:00,
2013-07-02 06:30:00,61.3,49.5,24.89,West,261,5.8,7.6,65,0.00,,---,0.00,VWS V14.01,2013-07-02 12:30:00,
2013-07-02 06:35:00,61.3,49.1,24.89,West,268,7.2,8.3,64,0.00,,---,0.00,VWS V14.01,2013-07-02 12:35:00,
2013-07-02 06:40:00,61.3,49.5,24.89,WSW,246,7.6,7.6,65,0.00,,---,0.00,VWS V14.01,2013-07-02 12:40:00,
2013-07-02 06:45:00,61.5,49.2,24.89,West,278,7.6,8.7,64,0.00,,---,0.00,VWS V14.01,2013-07-02 12:45:00,
2013-07-02 06:50:00,61.5,49.7,24.89,West,259,7.6,8.7,65,0.00,,---,0.00,VWS V14.01,2013-07-02 12:50:00,
2013-07-02 06:55:00,61.7,49.8,24.89,WNW,293,5.8,8.1,65,0.00,,---,0.00,VWS V14.01,2013-07-02 12:55:00,
2013-07-02 07:00:00,62.1,49.8,24.89,West,262,8.7,8.7,64,0.00,,---,0.00,VWS V14.01,2013-07-02 13:00:00,
2013-07-02 07:05:00,62.2,49.9,24.89,SW,234,5.4,7.6,64,0.00,,---,0.00,VWS V14.01,2013-07-02 13:05:00,
2013-07-02 07:10:00,62.6,49.8,24.89,SW,228,7.6,8.7,63,0.00,,---,0.00,VWS V14.01,2013-07-02 13:10:00,
2013-07-02 07:15:00,63.1,49.9,24.89,West,266,5.8,5.8,62,0.00,,---,0.00,VWS V14.01,2013-07-02 13:15:00,
2013-07-02 07:20:00,63.3,49.7,24.89,WNW,292,6.3,6.3,61,0.00,,---,0.00,VWS V14.01,2013-07-02 13:20:00,
2013-07-02 07:25:00,63.7,50.0,24.89,West,259,6.3,6.3,61,0.00,,---,0.00,VWS V14.01,2013-07-02 13:25:00,
2013-07-02 07:30:00,64.0,49.9,24.89,West,266,5.4,5.4,60,0.00,,---,0.00,VWS V14.01,2013-07-02 13:30:00,
2013-07-02 07:35:00,64.4,49.8,24.89,SW,227,10.5,10.5,59,0.00,,---,0.00,VWS V14.01,2013-07-02 13:35:00,
2013-07-02 07:40:00,64.9,49.8,24.89,WSW,250,7.6,7.6,58,0.00,,---,0.00,VWS V14.01,2013-07-02 13:40:00,
2013-07-02 07:45:00,65.3,49.7,24.89,WSW,252,4.0,4.9,57,0.00,,---,0.00,VWS V14.01,2013-07-02 13:45:00,
2013-07-02 07:50:00,65.8,49.7,24.89,WSW,253,6.7,6.7,56,0.00,,---,0.00,VWS V14.01,2013-07-02 13:50:00,
2013-07-02 07:55:00,66.0,49.9,24.89,SW,228,3.1,5.4,56,0.00,,---,0.00,VWS V14.01,2013-07-02 13:55:00,
2013-07-02 08:00:00,66.4,49.7,24.89,WNW,293,6.3,7.2,55,0.00,,---,0.00,VWS V14.01,2013-07-02 14:00:00,
2013-07-02 08:05:00,66.9,49.8,24.89,WSW,249,8.7,8.7,54,0.00,,---,0.00,VWS V14.01,2013-07-02 14:05:00,
2013-07-02 08:10:00,67.3,50.1,24.89,SW,231,4.0,5.8,54,0.00,,---,0.00,VWS V14.01,2013-07-02 14:10:00,
2013-07-02 08:15:00,67.6,49.9,24.89,West,261,5.4,7.2,53,0.00,,---,0.00,VWS V14.01,2013-07-02 14:15:00,
2013-07-02 08:20:00,68.2,50.4,24.89,WSW,249,5.8,6.3,53,0.00,,---,0.00,VWS V14.01,2013-07-02 14:20:00,
2013-07-02 08:25:00,68.7,50.4,24.89,SW,236,5.8,5.8,52,0.00,,---,0.00,VWS V14.01,2013-07-02 14:25:00,
2013-07-02 08:30:00,69.1,50.2,24.89,WNW,288,6.3,6.3,51,0.00,,---,0.00,VWS V14.01,2013-07-02 14:30:00,
2013-07-02 08:35:00,69.6,50.7,24.89,WSW,251,4.0,5.4,51,0.00,,---,0.00,VWS V14.01,2013-07-02 14:35:00,
2013-07-02 08:40:00,70.2,50.7,24.89,WSW,245,3.1,3.6,50,0.00,,---,0.00,VWS V14.01,2013-07-02 14:40:00,
2013-07-02 08:45:00,70.7,50.6,24.89,WSW,251,4.0,4.0,49,0.00,,---,0.00,VWS V14.01,2013-07-02 14:45:00,
2013-07-02 08:50:00,71.1,51.0,24.89,West,266,6.3,6.3,49,0.00,,---,0.00,VWS V14.01,2013-07-02 14:50:00,
2013-07-02 08:55:00,71.4,50.7,24.89,WNW,295,3.6,4.0,48,0.00,,---,0.00,VWS V14.01,2013-07-02 14:55:00,
2013-07-02 09:00:00,72.1,51.9,24.89,WNW,283,0.0,0.0,49,0.00,,---,0.00,VWS V14.01,2013-07-02 15:00:00,
2013-07-02 09:05:00,72.7,51.3,24.89,WNW,283,0.0,0.0,47,0.00,,---,0.00,VWS V14.01,2013-07-02 15:05:00,
2013-07-02 09:10:00,73.4,51.4,24.89,WNW,283,0.0,0.0,46,0.00,,---,0.00,VWS V14.01,2013-07-02 15:10:00,
2013-07-02 09:15:00,73.9,51.3,24.89,WNW,283,0.0,0.0,45,0.00,,---,0.00,VWS V14.01,2013-07-02 15:15:00,
2013-07-02 09:20:00,74.3,50.4,24.86,WNW,283,0.0,0.0,43,0.00,,---,0.00,VWS V14.01,2013-07-02 15:20:00,
2013-07-02 09:25:00,74.8,50.2,24.86,WNW,284,0.0,0.0,42,0.00,,---,0.00,VWS V14.01,2013-07-02 15:25:00,
2013-07-02 09:30:00,75.2,49.9,24.86,WNW,295,0.0,0.0,41,0.00,,---,0.00,VWS V14.01,2013-07-02 15:30:00,
2013-07-02 09:35:00,76.1,51.4,24.86,NE,52,3.6,3.6,42,0.00,,---,0.00,VWS V14.01,2013-07-02 15:35:00,
2013-07-02 09:40:00,77.2,51.0,24.86,ENE,60,0.0,2.7,40,0.00,,---,0.00,VWS V14.01,2013-07-02 15:40:00,
2013-07-02 09:45:00,78.1,51.8,24.86,NE,45,2.2,2.7,40,0.00,,---,0.00,VWS V14.01,2013-07-02 15:45:00,
2013-07-02 09:50:00,79.3,50.8,24.86,ENE,62,2.2,2.2,37,0.00,,---,0.00,VWS V14.01,2013-07-02 15:50:00,
2013-07-02 09:55:00,79.7,50.4,24.86,NE,55,3.6,3.6,36,0.00,,---,0.00,VWS V14.01,2013-07-02 15:55:00,
2013-07-02 10:00:00,80.2,49.3,24.86,NE,37,0.0,0.0,34,0.00,,---,0.00,VWS V14.01,2013-07-02 16:00:00,
2013-07-02 10:05:00,79.9,49.8,24.86,NE,48,3.6,3.6,35,0.00,,---,0.00,VWS V14.01,2013-07-02 16:05:00,
2013-07-02 10:10:00,80.4,50.3,24.86,NE,47,0.0,0.0,35,0.00,,---,0.00,VWS V14.01,2013-07-02 16:10:00,
2013-07-02 10:15:00,80.8,49.8,24.86,NE,46,0.0,0.0,34,0.00,,---,0.00,VWS V14.01,2013-07-02 16:15:00,
2013-07-02 10:20:00,81.0,50.0,24.86,NE,43,0.0,0.0,34,0.00,,---,0.00,VWS V14.01,2013-07-02 16:20:00,
2013-07-02 10:25:00,80.2,48.5,24.86,NE,41,0.0,0.0,33,0.00,,---,0.00,VWS V14.01,2013-07-02 16:25:00,
2013-07-02 10:30:00,80.6,49.7,24.86,NE,35,3.1,3.6,34,0.00,,---,0.00,VWS V14.01,2013-07-02 16:30:00,
2013-07-02 10:35:00,81.5,49.7,24.86,NE,54,0.0,0.0,33,0.00,,---,0.00,VWS V14.01,2013-07-02 16:35:00,
2013-07-02 10:40:00,82.6,49.8,24.86,East,98,0.0,0.0,32,0.00,,---,0.00,VWS V14.01,2013-07-02 16:40:00,
2013-07-02 10:45:00,83.1,49.4,24.86,NNE,12,2.7,2.7,31,0.00,,---,0.00,VWS V14.01,2013-07-02 16:45:00,
2013-07-02 10:50:00,83.3,49.5,24.86,North,357,0.0,0.0,31,0.00,,---,0.00,VWS V14.01,2013-07-02 16:50:00,
2013-07-02 10:55:00,83.5,49.7,24.86,NE,46,2.7,3.1,31,0.00,,---,0.00,VWS V14.01,2013-07-02 16:55:00,
2013-07-02 11:00:00,84.4,50.5,24.86,NNE,26,0.0,0.0,31,0.00,,---,0.00,VWS V14.01,2013-07-02 17:00:00,
2013-07-02 11:05:00,85.3,51.2,24.86,NE,42,2.2,2.2,31,0.00,,---,0.00,VWS V14.01,2013-07-02 17:05:00,
2013-07-02 11:10:00,85.6,50.7,24.86,NE,42,5.4,5.8,30,0.00,,---,0.00,VWS V14.01,2013-07-02 17:10:00,
2013-07-02 11:15:00,86.4,50.4,24.86,NNE,27,5.4,5.4,29,0.00,,---,0.00,VWS V14.01,2013-07-02 17:15:00,
2013-07-02 11:20:00,86.7,50.7,24.86,NE,46,5.8,6.3,29,0.00,,---,0.00,VWS V14.01,2013-07-02 17:20:00,
2013-07-02 11:25:00,86.9,50.8,24.86,NE,49,2.7,3.1,29,0.00,,---,0.00,VWS V14.01,2013-07-02 17:25:00,
2013-07-02 11:30:00,87.1,51.0,24.86,NE,43,5.4,5.8,29,0.00,,---,0.00,VWS V14.01,2013-07-02 17:30:00,
2013-07-02 11:35:00,87.6,51.5,24.86,NE,50,0.0,2.7,29,0.00,,---,0.00,VWS V14.01,2013-07-02 17:35:00,
2013-07-02 11:40:00,88.0,50.8,24.86,NNE,20,3.6,4.0,28,0.00,,---,0.00,VWS V14.01,2013-07-02 17:40:00,
2013-07-02 11:45:00,88.3,51.1,24.86,NE,48,3.6,4.0,28,0.00,,---,0.00,VWS V14.01,2013-07-02 17:45:00,
2013-07-02 11:50:00,89.1,51.8,24.86,NE,45,5.8,5.8,28,0.00,,---,0.00,VWS V14.01,2013-07-02 17:50:00,
2013-07-02 11:55:00,89.2,51.9,24.86,NE,39,6.3,6.3,28,0.00,,---,0.00,VWS V14.01,2013-07-02 17:55:00,
2013-07-02 12:00:00,88.9,51.6,24.86,NE,51,5.8,5.8,28,0.00,,---,0.00,VWS V14.01,2013-07-02 18:00:00,
2013-07-02 12:05:00,89.1,50.8,24.86,NE,52,3.1,4.5,27,0.00,,---,0.00,VWS V14.01,2013-07-02 18:05:00,
2013-07-02 12:10:00,89.2,50.9,24.86,ENE,57,0.0,0.0,27,0.00,,---,0.00,VWS V14.01,2013-07-02 18:10:00,
2013-07-02 12:15:00,88.9,51.6,24.86,NE,55,0.0,0.0,28,0.00,,---,0.00,VWS V14.01,2013-07-02 18:15:00,
2013-07-02 12:20:00,88.3,50.2,24.86,NNE,33,2.7,3.6,27,0.00,,---,0.00,VWS V14.01,2013-07-02 18:20:00,
2013-07-02 12:25:00,88.7,51.4,24.86,NNE,29,4.9,5.4,28,0.00,,---,0.00,VWS V14.01,2013-07-02 18:25:00,
2013-07-02 12:30:00,88.7,51.4,24.86,NE,40,6.3,6.3,28,0.00,,---,0.00,VWS V14.01,2013-07-02 18:30:00,
2013-07-02 12:35:00,89.2,52.9,24.86,ENE,63,3.1,4.0,29,0.00,,---,0.00,VWS V14.01,2013-07-02 18:35:00,
2013-07-02 12:40:00,89.4,53.0,24.86,NNE,17,6.3,6.3,29,0.00,,---,0.00,VWS V14.01,2013-07-02 18:40:00,
2013-07-02 12:45:00,89.4,53.0,24.86,NE,37,8.1,8.1,29,0.00,,---,0.00,VWS V14.01,2013-07-02 18:45:00,
2013-07-02 12:50:00,89.4,53.0,24.86,NE,50,6.3,6.3,29,0.00,,---,0.00,VWS V14.01,2013-07-02 18:50:00,
2013-07-02 12:55:00,89.2,52.9,24.86,ENE,57,3.1,4.0,29,0.00,,---,0.00,VWS V14.01,2013-07-02 18:55:00,
2013-07-02 13:00:00,88.9,52.5,24.86,NE,46,3.1,3.1,29,0.00,,---,0.00,VWS V14.01,2013-07-02 19:00:00,
2013-07-02 13:05:00,89.2,51.9,24.86,ENE,58,6.3,8.7,28,0.00,,---,0.00,VWS V14.01,2013-07-02 19:05:00,
2013-07-02 13:10:00,89.1,51.8,24.86,NE,52,6.3,8.3,28,0.00,,---,0.00,VWS V14.01,2013-07-02 19:10:00,
2013-07-02 13:15:00,89.6,51.2,24.86,NE,40,6.3,7.6,27,0.00,,---,0.00,VWS V14.01,2013-07-02 19:15:00,
2013-07-02 13:20:00,90.5,52.0,24.86,ENE,67,8.1,8.1,27,0.00,,---,0.00,VWS V14.01,2013-07-02 19:20:00,
2013-07-02 13:25:00,90.9,49.1,24.86,NNE,15,8.3,11.0,24,0.00,,---,0.00,VWS V14.01,2013-07-02 19:25:00,
2013-07-02 13:30:00,90.9,49.1,24.86,NNE,23,8.1,8.1,24,0.00,,---,0.00,VWS V14.01,2013-07-02 19:30:00,
2013-07-02 13:35:00,90.9,45.6,24.86,NNE,19,6.3,6.3,21,0.00,,---,0.00,VWS V14.01,2013-07-02 19:35:00,
2013-07-02 13:40:00,91.0,47.0,24.86,NE,46,6.3,7.2,22,0.00,,---,0.00,VWS V14.01,2013-07-02 19:40:00,
2013-07-02 13:45:00,91.2,47.1,24.86,ENE,60,6.3,6.3,22,0.00,,---,0.00,VWS V14.01,2013-07-02 19:45:00,
2013-07-02 13:50:00,91.0,45.7,24.86,ENE,73,2.7,4.0,21,0.00,,---,0.00,VWS V14.01,2013-07-02 19:50:00,
2013-07-02 13:55:00,90.5,46.5,24.86,East,82,6.3,6.3,22,0.00,,---,0.00,VWS V14.01,2013-07-02 19:55:00,
2013-07-02 14:00:00,90.1,47.4,24.86,East,85,2.7,4.0,23,0.00,,---,0.00,VWS V14.01,2013-07-02 20:00:00,
2013-07-02 14:05:00,90.3,48.7,24.86,NE,56,3.1,4.0,24,0.00,,---,0.00,VWS V14.01,2013-07-02 20:05:00,
2013-07-02 14:10:00,90.0,47.2,24.86,NE,52,5.4,7.6,23,0.00,,---,0.00,VWS V14.01,2013-07-02 20:10:00,
2013-07-02 14:15:00,89.1,47.6,24.86,NE,54,3.6,3.6,24,0.00,,---,0.00,VWS V14.01,2013-07-02 20:15:00,
2013-07-02 14:20:00,88.9,48.5,24.86,ENE,78,6.3,6.3,25,0.00,,---,0.00,VWS V14.01,2013-07-02 20:20:00,
2013-07-02 14:25:00,88.7,48.4,24.86,NNE,25,4.0,4.0,25,0.00,,---,0.00,VWS V14.01,2013-07-02 20:25:00,
2013-07-02 14:30:00,88.3,50.2,24.86,NE,49,2.7,2.7,27,0.00,,---,0.00,VWS V14.01,2013-07-02 20:30:00,
2013-07-02 14:35:00,88.3,50.2,24.86,East,86,5.4,5.4,27,0.00,,---,0.00,VWS V14.01,2013-07-02 20:35:00,
2013-07-02 14:40:00,88.2,51.0,24.86,NE,44,4.0,4.9,28,0.00,,---,0.00,VWS V14.01,2013-07-02 20:40:00,
2013-07-02 14:45:00,88.5,51.3,24.86,NE,51,2.7,4.0,28,0.00,,---,0.00,VWS V14.01,2013-07-02 20:45:00,
2013-07-02 14:50:00,89.6,52.2,24.86,ENE,62,4.9,4.9,28,0.00,,---,0.00,VWS V14.01,2013-07-02 20:50:00,
2013-07-02 14:55:00,90.7,52.1,24.86,ENE,61,2.7,5.8,27,0.00,,---,0.00,VWS V14.01,2013-07-02 20:55:00,
2013-07-02 15:00:00,90.7,52.1,24.86,East,91,2.7,3.1,27,0.00,,---,0.00,VWS V14.01,2013-07-02 21:00:00,
2013-07-02 15:05:00,90.7,52.1,24.83,East,92,0.0,0.0,27,0.00,,---,0.00,VWS V14.01,2013-07-02 21:05:00,
2013-07-02 15:10:00,90.7,52.1,24.83,ESE,111,2.2,3.6,27,0.00,,---,0.00,VWS V14.01,2013-07-02 21:10:00,
2013-07-02 15:15:00,90.7,52.1,24.83,ENE,72,4.0,4.0,27,0.00,,---,0.00,VWS V14.01,2013-07-02 21:15:00,
2013-07-02 15:20:00,90.7,52.1,24.83,NE,37,3.6,4.0,27,0.00,,---,0.00,VWS V14.01,2013-07-02 21:20:00,
2013-07-02 15:25:00,90.7,52.1,24.83,NNE,32,4.0,4.0,27,0.00,,---,0.00,VWS V14.01,2013-07-02 21:25:00,
2013-07-02 15:30:00,90.7,52.1,24.83,NE,52,4.0,4.0,27,0.00,,---,0.00,VWS V14.01,2013-07-02 21:30:00,
2013-07-02 15:35:00,90.7,52.1,24.83,ENE,67,4.0,6.3,27,0.00,,---,0.00,VWS V14.01,2013-07-02 21:35:00,
2013-07-02 15:40:00,90.7,52.1,24.83,NNE,32,3.1,5.4,27,0.00,,---,0.00,VWS V14.01,2013-07-02 21:40:00,
2013-07-02 15:45:00,90.7,52.1,24.83,NE,43,3.1,3.6,27,0.00,,---,0.00,VWS V14.01,2013-07-02 21:45:00,
2013-07-02 15:50:00,90.7,52.1,24.83,North,1,5.4,5.8,27,0.00,,---,0.00,VWS V14.01,2013-07-02 21:50:00,
2013-07-02 15:55:00,90.7,52.1,24.83,NE,48,3.6,3.6,27,0.00,,---,0.00,VWS V14.01,2013-07-02 21:55:00,
2013-07-02 16:00:00,90.7,52.1,24.83,NE,46,5.4,5.4,27,0.00,,---,0.00,VWS V14.01,2013-07-02 22:00:00,
2013-07-02 16:05:00,90.7,52.1,24.83,NE,48,4.0,4.9,27,0.00,,---,0.00,VWS V14.01,2013-07-02 22:05:00,
2013-07-02 16:10:00,90.7,52.1,24.83,East,84,5.4,7.2,27,0.00,,---,0.00,VWS V14.01,2013-07-02 22:10:00,
2013-07-02 16:15:00,90.7,52.1,24.83,ENE,68,8.3,8.3,27,0.00,,---,0.00,VWS V14.01,2013-07-02 22:15:00,
2013-07-02 16:20:00,90.7,52.1,24.81,ENE,67,7.6,8.7,27,0.00,,---,0.00,VWS V14.01,2013-07-02 22:20:00,
2013-07-02 16:25:00,90.7,52.1,24.81,ENE,61,5.4,8.1,27,0.00,,---,0.00,VWS V14.01,2013-07-02 22:25:00,
2013-07-02 16:30:00,90.7,52.1,24.81,North,10,6.3,6.3,27,0.00,,---,0.00,VWS V14.01,2013-07-02 22:30:00,
2013-07-02 16:35:00,90.7,52.1,24.81,ENE,73,4.5,8.3,27,0.00,,---,0.00,VWS V14.01,2013-07-02 22:35:00,
2013-07-02 16:40:00,90.7,52.1,24.81,ENE,60,5.4,8.1,27,0.00,,---,0.00,VWS V14.01,2013-07-02 22:40:00,
2013-07-02 16:45:00,90.7,52.1,24.81,ENE,63,7.6,7.6,27,0.00,,---,0.00,VWS V14.01,2013-07-02 22:45:00,
2013-07-02 16:50:00,90.7,52.1,24.81,NE,46,3.1,5.4,27,0.00,,---,0.00,VWS V14.01,2013-07-02 22:50:00,
2013-07-02 16:55:00,90.7,52.1,24.81,NE,35,8.3,8.3,27,0.00,,---,0.00,VWS V14.01,2013-07-02 22:55:00,
2013-07-02 17:00:00,90.7,52.1,24.81,NW,304,2.7,6.3,27,0.00,,---,0.00,VWS V14.01,2013-07-02 23:00:00,
2013-07-02 17:05:00,90.7,52.1,24.81,ENE,69,3.6,7.6,27,0.00,,---,0.00,VWS V14.01,2013-07-02 23:05:00,
2013-07-02 17:10:00,90.7,52.1,24.81,East,91,2.7,7.6,27,0.00,,---,0.00,VWS V14.01,2013-07-02 23:10:00,
2013-07-02 17:15:00,90.7,52.1,24.81,NE,54,10.1,10.5,27,0.00,,---,0.00,VWS V14.01,2013-07-02 23:15:00,
2013-07-02 17:20:00,90.7,52.1,24.81,NE,54,4.0,5.4,27,0.00,,---,0.00,VWS V14.01,2013-07-02 23:20:00,
2013-07-02 17:25:00,90.7,52.1,24.81,NNE,15,7.6,7.6,27,0.00,,---,0.00,VWS V14.01,2013-07-02 23:25:00,
2013-07-02 17:29:00,90.7,52.1,24.81,ENE,74,5.4,5.4,27,0.00,,---,0.00,VWS V14.01,2013-07-02 23:29:00,
2013-07-02 17:34:00,90.7,52.1,24.81,NE,52,6.3,6.3,27,0.00,,---,0.00,VWS V14.01,2013-07-02 23:34:00,
2013-07-02 17:39:00,90.7,52.1,24.81,NE,48,5.4,6.3,27,0.00,,---,0.00,VWS V14.01,2013-07-02 23:39:00,
2013-07-02 17:44:00,90.7,52.1,24.81,NNE,33,4.0,8.1,27,0.00,,---,0.00,VWS V14.01,2013-07-02 23:44:00,
2013-07-02 17:49:00,90.7,52.1,24.81,NNE,30,3.1,5.8,27,0.00,,---,0.00,VWS V14.01,2013-07-02 23:49:00,
2013-07-02 17:54:00,90.7,52.1,24.78,NNE,31,7.6,7.6,27,0.00,,---,0.00,VWS V14.01,2013-07-02 23:54:00,
2013-07-02 17:59:00,90.7,52.1,24.78,NE,54,8.3,8.3,27,0.00,,---,0.00,VWS V14.01,2013-07-02 23:59:00,
2013-07-02 18:01:00,90.7,52.1,24.78,ENE,57,7.6,7.6,27,0.00,,---,0.00,VWS V14.01,2013-07-03 00:01:00,
2013-07-02 18:06:00,90.7,52.1,24.78,NE,44,5.4,7.6,27,0.00,,---,0.00,VWS V14.01,2013-07-03 00:06:00,
2013-07-02 18:11:00,90.7,52.1,24.78,ENE,60,9.2,10.5,27,0.00,,---,0.00,VWS V14.01,2013-07-03 00:11:00,
2013-07-02 18:16:00,90.7,52.1,24.78,NE,50,2.7,6.3,27,0.00,,---,0.00,VWS V14.01,2013-07-03 00:16:00,
2013-07-02 18:21:00,90.7,52.1,24.78,NNE,25,5.4,5.4,27,0.00,,---,0.00,VWS V14.01,2013-07-03 00:21:00,
2013-07-02 18:23:00,90.7,52.1,24.78,NE,34,6.3,6.3,27,0.00,,---,0.00,VWS V14.01,2013-07-03 00:23:00,
2013-07-02 18:24:00,90.7,52.1,24.78,ENE,60,6.3,6.3,27,0.00,,---,0.00,VWS V14.01,2013-07-03 00:24:00,
2013-07-02 18:28:00,90.7,52.1,24.78,NNE,25,6.3,6.3,27,0.00,,---,0.00,VWS V14.01,2013-07-03 00:28:00,
2013-07-02 18:33:00,90.7,52.1,24.78,ENE,68,5.8,5.8,27,0.00,,---,0.00,VWS V14.01,2013-07-03 00:33:00,
2013-07-02 18:38:00,90.7,52.1,24.78,NE,56,4.9,5.8,27,0.00,,---,0.00,VWS V14.01,2013-07-03 00:38:00,
2013-07-02 18:43:00,90.7,52.1,24.78,ENE,62,6.3,6.3,27,0.00,,---,0.00,VWS V14.01,2013-07-03 00:43:00,
2013-07-02 18:48:00,90.7,52.1,24.78,NE,46,4.0,5.8,27,0.00,,---,0.00,VWS V14.01,2013-07-03 00:48:00,
2013-07-02 18:53:00,90.7,52.1,24.78,NE,37,3.6,6.3,27,0.00,,---,0.00,VWS V14.01,2013-07-03 00:53:00,
2013-07-02 18:58:00,90.7,52.1,24.78,NE,56,3.6,6.3,27,0.00,,---,0.00,VWS V14.01,2013-07-03 00:58:00,
2013-07-02 19:00:00,90.7,52.1,24.78,NE,47,4.9,6.7,27,0.00,,---,0.00,VWS V14.01,2013-07-03 01:00:00,
2013-07-02 19:03:00,90.7,52.1,24.78,NE,36,0.0,4.0,27,0.00,,---,0.00,VWS V14.01,2013-07-03 01:03:00,
2013-07-02 19:08:00,90.7,52.1,24.78,NE,55,3.1,5.8,27,0.00,,---,0.00,VWS V14.01,2013-07-03 01:08:00,
2013-07-02 19:09:00,90.7,52.1,24.78,ENE,59,3.1,5.8,27,0.00,,---,0.00,VWS V14.01,2013-07-03 01:09:00,
2013-07-02 19:14:00,90.7,52.1,24.78,NNW,343,2.7,4.9,27,0.00,,---,0.00,VWS V14.01,2013-07-03 01:14:00,
2013-07-02 19:19:00,90.7,52.1,24.78,NE,42,4.0,4.0,27,0.00,,---,0.00,VWS V14.01,2013-07-03 01:19:00,
2013-07-02 19:24:00,90.7,52.1,24.75,North,9,2.2,5.4,27,0.00,,---,0.00,VWS V14.01,2013-07-03 01:24:00,
2013-07-02 19:26:00,93.2,42.0,24.75,NNE,29,5.4,5.4,17,0.00,,---,0.00,VWS V14.01,2013-07-03 01:26:00,
2013-07-02 19:31:00,92.3,41.2,24.75,NNE,31,0.0,3.6,17,0.00,,---,0.00,VWS V14.01,2013-07-03 01:31:00,
2013-07-02 19:36:00,91.2,41.8,24.78,NE,34,0.0,3.1,18,0.00,,---,0.00,VWS V14.01,2013-07-03 01:36:00,
2013-07-02 19:41:00,90.3,41.1,24.78,North,8,0.0,0.0,18,0.00,,---,0.00,VWS V14.01,2013-07-03 01:41:00,
2013-07-02 19:46:00,89.6,40.5,24.78,NNE,14,0.0,0.0,18,0.00,,---,0.00,VWS V14.01,2013-07-03 01:46:00,
2013-07-02 19:49:00,89.2,41.6,24.78,NNE,14,0.0,0.0,19,0.00,,---,0.00,VWS V14.01,2013-07-03 01:49:00,
2013-07-02 19:50:00,89.1,41.5,24.78,NNE,14,0.0,0.0,19,0.00,,---,0.00,VWS V14.01,2013-07-03 01:50:00,
2013-07-02 19:55:00,88.3,40.9,24.78,NNE,14,0.0,0.0,19,0.00,,---,0.00,VWS V14.01,2013-07-03 01:55:00,
2013-07-02 20:00:00,87.6,40.3,24.78,NNE,14,0.0,0.0,19,0.00,,---,0.00,VWS V14.01,2013-07-03 02:00:00,
2013-07-02 20:05:00,86.9,41.0,24.78,ENE,64,0.0,0.0,20,0.00,,---,0.00,VWS V14.01,2013-07-03 02:05:00,
2013-07-02 20:10:00,86.0,40.3,24.78,NE,51,0.0,0.0,20,0.00,,---,0.00,VWS V14.01,2013-07-03 02:10:00,
2013-07-02 20:15:00,84.9,40.7,24.78,WNW,286,0.0,0.0,21,0.00,,---,0.00,VWS V14.01,2013-07-03 02:15:00,
2013-07-02 20:21:00,84.0,41.1,24.78,WNW,297,3.6,5.4,22,0.00,,---,0.00,VWS V14.01,2013-07-03 02:21:00,
2013-07-02 20:26:00,83.1,42.6,24.78,West,270,4.0,4.0,24,0.00,,---,0.00,VWS V14.01,2013-07-03 02:26:00,
2013-07-02 20:31:00,82.4,44.1,24.78,West,281,2.7,4.0,26,0.00,,---,0.00,VWS V14.01,2013-07-03 02:31:00,
2013-07-02 20:32:00,82.2,44.9,24.78,WSW,244,5.4,5.4,27,0.00,,---,0.00,VWS V14.01,2013-07-03 02:32:00,
2013-07-02 20:37:00,81.7,46.4,24.78,West,266,3.6,3.6,29,0.00,,---,0.00,VWS V14.01,2013-07-03 02:37:00,
2013-07-02 20:42:00,81.3,47.0,24.78,West,263,5.8,5.8,30,0.00,,---,0.00,VWS V14.01,2013-07-03 02:42:00,
2013-07-02 20:46:00,81.0,46.6,24.78,West,265,3.6,5.4,30,0.00,,---,0.00,VWS V14.01,2013-07-03 02:46:00,
2013-07-02 20:51:00,80.6,46.3,24.78,WNW,285,4.9,5.8,30,0.00,,---,0.00,VWS V14.01,2013-07-03 02:51:00,
2013-07-02 20:56:00,80.4,46.2,24.78,WSW,256,6.3,7.6,30,0.00,,---,0.00,VWS V14.01,2013-07-03 02:56:00,
2013-07-02 21:01:00,80.2,46.0,24.78,West,260,4.0,6.3,30,0.00,,---,0.00,VWS V14.01,2013-07-03 03:01:00,
2013-07-02 21:02:00,80.2,46.0,24.78,SW,234,4.0,4.0,30,0.00,,---,0.00,VWS V14.01,2013-07-03 03:02:00,
2013-07-02 21:07:00,80.1,45.9,24.78,West,273,4.9,5.4,30,0.00,,---,0.00,VWS V14.01,2013-07-03 03:07:00,
2013-07-02 21:12:00,79.5,46.3,24.78,WSW,250,4.0,4.0,31,0.00,,---,0.00,VWS V14.01,2013-07-03 03:12:00,
2013-07-02 21:17:00,79.2,46.0,24.78,West,265,5.8,5.8,31,0.00,,---,0.00,VWS V14.01,2013-07-03 03:17:00,
2013-07-02 21:20:00,78.8,46.5,24.78,WNW,292,9.6,9.6,32,0.00,,---,0.00,VWS V14.01,2013-07-03 03:20:00,
2013-07-02 21:25:00,78.1,47.5,24.78,West,275,9.6,9.6,34,0.00,,---,0.00,VWS V14.01,2013-07-03 03:25:00,
2013-07-02 21:30:00,80.8,44.7,24.78,SSE,152,17.4,17.4,28,0.00,,---,0.00,VWS V14.01,2013-07-03 03:30:00,
2013-07-02 21:35:00,83.3,41.7,24.78,South,188,3.6,11.0,23,0.00,,---,0.00,VWS V14.01,2013-07-03 03:35:00,
2013-07-02 21:39:00,82.9,42.5,24.78,SE,137,11.0,13.2,24,0.00,,---,0.00,VWS V14.01,2013-07-03 03:39:00,
2013-07-02 21:44:00,81.9,41.6,24.78,SSE,156,5.8,8.3,24,0.00,,---,0.00,VWS V14.01,2013-07-03 03:44:00,
2013-07-02 21:49:00,81.7,41.4,24.78,West,267,6.3,6.3,24,0.00,,---,0.00,VWS V14.01,2013-07-03 03:49:00,
2013-07-02 21:54:00,81.3,42.2,24.78,WSW,248,6.3,6.3,25,0.00,,---,0.00,VWS V14.01,2013-07-03 03:54:00,
2013-07-02 21:59:00,79.7,42.8,24.78,WSW,249,4.0,5.8,27,0.00,,---,0.00,VWS V14.01,2013-07-03 03:59:00,
2013-07-02 22:00:00,79.5,43.6,24.78,West,269,4.0,4.0,28,0.00,,---,0.00,VWS V14.01,2013-07-03 04:00:00,
2013-07-02 22:01:00,79.5,43.6,24.78,West,268,3.1,4.0,28,0.00,,---,0.00,VWS V14.01,2013-07-03 04:01:00,
2013-07-02 22:03:00,79.3,43.4,24.78,West,263,4.0,4.0,28,0.00,,---,0.00,VWS V14.01,2013-07-03 04:03:00,
2013-07-02 22:04:00,79.3,43.4,24.78,West,267,4.0,4.0,28,0.00,,---,0.00,VWS V14.01,2013-07-03 04:04:00,
2013-07-02 22:09:00,79.2,44.2,24.81,West,278,5.4,5.4,29,0.00,,---,0.00,VWS V14.01,2013-07-03 04:09:00,
2013-07-02 22:14:00,78.6,44.6,24.81,SW,231,6.7,6.7,30,0.00,,---,0.00,VWS V14.01,2013-07-03 04:14:00,
2013-07-02 22:19:00,78.1,44.2,24.81,SW,227,5.8,5.8,30,0.00,,---,0.00,VWS V14.01,2013-07-03 04:19:00,
2013-07-02 22:24:00,77.9,44.9,24.78,West,271,8.1,8.1,31,0.00,,---,0.00,VWS V14.01,2013-07-03 04:24:00,
2013-07-02 22:29:00,77.7,44.7,24.78,West,268,4.0,4.9,31,0.00,,---,0.00,VWS V14.01,2013-07-03 04:29:00,
2013-07-02 22:31:00,77.5,44.5,24.78,WNW,300,3.6,3.6,31,0.00,,---,0.00,VWS V14.01,2013-07-03 04:31:00,
2013-07-02 22:32:00,77.4,44.4,24.78,West,265,5.8,5.8,31,0.00,,---,0.00,VWS V14.01,2013-07-03 04:32:00,
2013-07-02 22:37:00,76.8,44.8,24.78,WSW,252,6.3,6.3,32,0.00,,---,0.00,VWS V14.01,2013-07-03 04:37:00,
2013-07-02 22:42:00,76.3,44.3,24.78,West,280,5.8,6.3,32,0.00,,---,0.00,VWS V14.01,2013-07-03 04:42:00,
2013-07-02 22:46:00,75.9,44.8,24.78,WNW,286,5.4,6.3,33,0.00,,---,0.00,VWS V14.01,2013-07-03 04:46:00,
2013-07-02 22:51:00,75.2,44.9,24.78,SW,234,8.1,8.1,34,0.00,,---,0.00,VWS V14.01,2013-07-03 04:51:00,
2013-07-02 22:53:00,75.2,44.9,24.78,WSW,254,8.3,8.3,34,0.00,,---,0.00,VWS V14.01,2013-07-03 04:53:00,
2013-07-02 22:58:00,74.7,45.2,24.78,WSW,240,5.4,5.8,35,0.00,,---,0.00,VWS V14.01,2013-07-03 04:58:00,
2013-07-02 23:03:00,74.7,46.0,24.78,WSW,237,8.3,8.3,36,0.00,,---,0.00,VWS V14.01,2013-07-03 05:03:00,
2013-07-02 23:07:00,74.3,46.4,24.78,West,273,6.3,8.1,37,0.00,,---,0.00,VWS V14.01,2013-07-03 05:07:00,
2013-07-02 23:12:00,74.1,46.2,24.78,WSW,245,8.1,8.3,37,0.00,,---,0.00,VWS V14.01,2013-07-03 05:12:00,
2013-07-02 23:17:00,74.1,46.9,24.78,WSW,245,8.1,8.3,38,0.00,,---,0.00,VWS V14.01,2013-07-03 05:17:00,
2013-07-02 23:19:00,74.1,46.9,24.78,WSW,255,8.3,8.7,38,0.00,,---,0.00,VWS V14.01,2013-07-03 05:19:00,
2013-07-02 23:24:00,74.1,47.6,24.78,SW,224,6.3,8.1,39,0.00,,---,0.00,VWS V14.01,2013-07-03 05:24:00,
2013-07-02 23:29:00,73.6,47.8,24.78,SW,225,7.6,8.3,40,0.00,,---,0.00,VWS V14.01,2013-07-03 05:29:00,
2013-07-02 23:34:00,73.2,48.8,24.78,SSW,209,9.6,9.6,42,0.00,,---,0.00,VWS V14.01,2013-07-03 05:34:00,
2013-07-02 23:39:00,73.0,48.6,24.78,WSW,241,4.9,4.9,42,0.00,,---,0.00,VWS V14.01,2013-07-03 05:39:00,
2013-07-02 23:44:00,72.9,48.5,24.78,WSW,237,9.2,9.2,42,0.00,,---,0.00,VWS V14.01,2013-07-03 05:44:00,
2013-07-02 23:49:00,72.9,48.5,24.78,WSW,250,10.5,10.5,42,0.00,,---,0.00,VWS V14.01,2013-07-03 05:49:00,
2013-07-02 23:54:00,72.7,48.3,24.81,West,275,8.3,8.3,42,0.00,,---,0.00,VWS V14.01,2013-07-03 05:54:00,
2013-07-02 23:57:00,72.7,48.3,24.81,SW,235,5.8,8.3,42,0.00,,---,0.00,VWS V14.01,2013-07-03 05:57:00,
2013-07-02 23:58:00,72.7,48.3,24.81,SW,228,7.6,7.6,42,0.00,,---,0.00,VWS V14.01,2013-07-03 05:58:00,